KI6PPU Weather Reports


time (UTC)temp
C
wind
direction
speed
KPH
gust
KPH
rain 1hr
cm
rain 24hr
cm
rain mn
cm
humidity
%
barometer
mb
20220627212905 37 284 11.3 11.3 0.00 0.00 0.00 13 1018.8
20220627212404 37 230 6.4 11.3 0.00 0.00 0.00 13 1019.1
20220627211904 36 180 3.2 9.7 0.00 0.00 0.00 15 1018.8
20220627211402 37 252 6.4 8.0 0.00 0.00 0.00 14 1018.9
20220627210901 37 263 6.4 11.3 0.00 0.00 0.00 15 1019.0
20220627210400 37 312 3.2 6.4 0.00 0.00 0.00 18 1019.0
20220627205859 36 137 6.4 6.4 0.00 0.00 0.00 14 1018.8
20220627205400 36 180 0.0 8.0 0.00 0.00 0.00 14 1018.9
20220627204859 36 240 3.2 14.5 0.00 0.00 0.00 15 1019.0
20220627204358 37 106 1.6 8.0 0.00 0.00 0.00 14 1019.1
20220627203858 37 240 0.0 6.4 0.00 0.00 0.00 17 1018.8
20220627203356 37 301 6.4 9.7 0.00 0.00 0.00 16 1019.1
20220627202856 36 255 4.8 11.3 0.00 0.00 0.00 17 1018.9
20220627202355 36 319 6.4 9.7 0.00 0.00 0.00 15 1019.1
20220627201855 35 180 1.6 12.9 0.00 0.00 0.00 15 1018.9
20220627201354 36 175 3.2 8.0 0.00 0.00 0.00 16 1019.3
20220627200853 36 159 3.2 8.0 0.00 0.00 0.00 14 1019.2
20220627200352 36 154 4.8 4.8 0.00 0.00 0.00 15 1019.1
20220627195851 36 154 4.8 4.8 0.00 0.00 0.00 15 1019.1
20220627195350 36 291 8.0 8.0 0.00 0.00 0.00 16 1019.2
20220627194850 36 165 8.0 8.0 0.00 0.00 0.00 14 1019.3
20220627194349 36 165 8.0 8.0 0.00 0.00 0.00 14 1019.3
20220627193848 36 165 8.0 8.0 0.00 0.00 0.00 14 1019.1
20220627193348 36 165 8.0 8.0 0.00 0.00 0.00 14 1019.1
20220627192847 36 165 8.0 8.0 0.00 0.00 0.00 14 1019.4
20220627192346 36 165 8.0 8.0 0.00 0.00 0.00 14 1019.4
20220627191845 36 165 8.0 8.0 0.00 0.00 0.00 14 1019.3
20220627191343 36 165 8.0 8.0 0.00 0.00 0.00 14 1019.3
20220627190842 36 279 8.0 14.5 0.00 0.00 0.00 13 1019.3
20220627190341 35 209 3.2 8.0 0.00 0.00 0.00 14 1019.4
20220627185840 35 209 3.2 8.0 0.00 0.00 0.00 14 1019.5
20220627185339 35 209 3.2 8.0 0.00 0.00 0.00 14 1019.3
20220627184837 35 0 1.6 1.6 0.00 0.00 0.00 17 1019.4
20220627184338 35 0 1.6 1.6 0.00 0.00 0.00 17 1019.3
20220627183836 35 0 1.6 1.6 0.00 0.00 0.00 17 1019.4
20220627183335 35 0 1.6 1.6 0.00 0.00 0.00 17 1019.2
20220627182834 35 0 1.6 1.6 0.00 0.00 0.00 17 1019.3
20220627182333 35 0 1.6 1.6 0.00 0.00 0.00 17 1019.5
20220627181833 35 219 6.4 6.4 0.00 0.00 0.00 17 1019.3
20220627181332 34 217 8.0 8.0 0.00 0.00 0.00 17 1019.3
20220627180831 34 356 3.2 6.4 0.00 0.00 0.00 22 1019.4
20220627180330 34 219 4.8 4.8 0.00 0.00 0.00 26 1019.2
20220627175829 34 219 4.8 4.8 0.00 0.00 0.00 26 1019.2
20220627175329 34 219 4.8 4.8 0.00 0.00 0.00 26 1019.1
20220627174827 34 237 0.0 4.8 0.00 0.00 0.00 28 1019.1
20220627174326 34 262 4.8 4.8 0.00 0.00 0.00 28 1019.1
20220627173827 33 341 0.0 3.2 0.00 0.00 0.00 29 1019.1
20220627173325 34 157 3.2 4.8 0.00 0.00 0.00 28 1019.0
20220627172825 32 0 1.6 3.2 0.00 0.00 0.00 31 1019.0
20220627172323 32 0 1.6 3.2 0.00 0.00 0.00 31 1018.8
20220627171820 32 0 1.6 3.2 0.00 0.00 0.00 31 1019.1
20220627171319 32 0 1.6 3.2 0.00 0.00 0.00 31 1019.0
20220627170817 32 346 4.8 6.4 0.00 0.00 0.00 32 1019.0
20220627170315 32 283 1.6 6.4 0.00 0.00 0.00 34 1018.8
20220627165814 32 330 4.8 4.8 0.00 0.00 0.00 31 1019.0
20220627165315 32 352 0.0 3.2 0.00 0.00 0.00 32 1019.1
20220627164814 31 352 1.6 4.8 0.00 0.00 0.00 33 1018.9
20220627164312 31 354 1.6 4.8 0.00 0.00 0.00 37 1018.9
20220627163811 31 339 0.0 4.8 0.00 0.00 0.00 33 1019.1
20220627163307 30 294 1.6 4.8 0.00 0.00 0.00 36 1019.1
20220627162806 30 0 0.0 4.8 0.00 0.00 0.00 34 1019.0
20220627162305 30 0 0.0 1.6 0.00 0.00 0.00 36 1019.1
20220627161803 30 340 1.6 3.2 0.00 0.00 0.00 35 1019.2
20220627161302 29 337 0.0 3.2 0.00 0.00 0.00 37 1019.1
20220627160801 28 351 0.0 3.2 0.00 0.00 0.00 36 1019.2
20220627160259 28 283 0.0 3.2 0.00 0.00 0.00 40 1019.0
20220627155759 28 337 0.0 1.6 0.00 0.00 0.00 42 1019.2
20220627155257 28 66 0.0 3.2 0.00 0.00 0.00 40 1019.1
20220627154756 28 261 1.6 3.2 0.00 0.00 0.00 45 1019.0
20220627154255 27 311 0.0 3.2 0.00 0.00 0.00 44 1018.9
20220627153754 27 291 1.6 3.2 0.00 0.00 0.00 45 1019.1
20220627153253 26 60 1.6 1.6 0.00 0.00 0.00 43 1019.2
20220627152752 25 53 0.0 3.2 0.00 0.00 0.00 44 1019.0
20220627152250 25 14 0.0 3.2 0.00 0.00 0.00 45 1019.0
20220627151749 25 8 0.0 0.0 0.00 0.00 0.00 44 1018.9
20220627151249 24 270 1.6 3.2 0.00 0.00 0.00 49 1018.8
20220627150747 23 90 0.0 0.0 0.00 0.00 0.00 46 1018.9
20220627150246 22 114 0.0 3.2 0.00 0.00 0.00 48 1019.0
20220627145745 22 74 0.0 1.6 0.00 0.00 0.00 49 1019.0
20220627145245 22 35 0.0 0.0 0.00 0.00 0.00 48 1018.9
20220627144744 21 29 0.0 3.2 0.00 0.00 0.00 49 1018.9
20220627144242 21 331 0.0 3.2 0.00 0.00 0.00 52 1019.0
20220627143740 19 300 0.0 1.6 0.00 0.00 0.00 56 1018.8
20220627143239 19 331 0.0 3.2 0.00 0.00 0.00 59 1018.8
20220627142738 19 6 1.6 3.2 0.00 0.00 0.00 54 1018.9
20220627142236 20 353 0.0 1.6 0.00 0.00 0.00 53 1018.8
20220627141736 18 74 0.0 1.6 0.00 0.00 0.00 55 1018.6
20220627141235 18 90 0.0 3.2 0.00 0.00 0.00 56 1018.3
20220627140734 18 83 1.6 3.2 0.00 0.00 0.00 55 1018.8
20220627140233 18 35 0.0 1.6 0.00 0.00 0.00 56 1018.5
20220627135732 16 90 1.6 1.6 0.00 0.00 0.00 59 1018.3
20220627135230 15 99 0.0 1.6 0.00 0.00 0.00 66 1018.4
20220627134730 13 45 3.2 4.8 0.00 0.00 0.00 68 1018.4
20220627134229 13 70 3.2 3.2 0.00 0.00 0.00 70 1018.4
20220627133728 12 90 0.0 3.2 0.00 0.00 0.00 71 1018.4
20220627133227 12 72 4.8 4.8 0.00 0.00 0.00 72 1018.4
20220627132726 12 79 3.2 3.2 0.00 0.00 0.00 73 1018.3
20220627132224 11 74 1.6 3.2 0.00 0.00 0.00 74 1018.3
20220627131723 11 109 1.6 1.6 0.00 0.00 0.00 74 1018.3
20220627131222 11 132 0.0 3.2 0.00 0.00 0.00 75 1018.2
20220627130721 11 96 1.6 3.2 0.00 0.00 0.00 75 1018.1
20220627130218 11 90 1.6 3.2 0.00 0.00 0.00 75 1018.0
20220627125717 11 83 1.6 3.2 0.00 0.00 0.00 74 1018.1
20220627125216 12 90 1.6 3.2 0.00 0.00 0.00 73 1018.0
20220627124715 12 103 1.6 3.2 0.00 0.00 0.00 72 1018.2
20220627124215 12 77 0.0 1.6 0.00 0.00 0.00 72 1018.3
20220627123714 12 90 4.8 4.8 0.00 0.00 0.00 73 1018.0
20220627123213 12 131 0.0 3.2 0.00 0.00 0.00 72 1017.8
20220627122713 12 49 0.0 3.2 0.00 0.00 0.00 73 1018.1
20220627122211 12 105 0.0 1.6 0.00 0.00 0.00 74 1018.0
20220627121709 12 77 3.2 3.2 0.00 0.00 0.00 73 1018.0
20220627121209 12 90 1.6 3.2 0.00 0.00 0.00 73 1017.8
20220627120708 12 53 3.2 4.8 0.00 0.00 0.00 73 1017.9
20220627120207 12 84 1.6 3.2 0.00 0.00 0.00 73 1017.9
20220627115706 12 60 0.0 3.2 0.00 0.00 0.00 73 1017.9
20220627115205 12 96 1.6 3.2 0.00 0.00 0.00 71 1017.8
20220627114705 12 66 3.2 4.8 0.00 0.00 0.00 72 1017.8
20220627114204 12 82 0.0 3.2 0.00 0.00 0.00 82 1017.7
20220627113704 13 90 3.2 4.8 0.00 0.00 0.00 69 1018.0
20220627113203 12 90 0.0 3.2 0.00 0.00 0.00 70 1017.7
20220627112702 13 60 3.2 4.8 0.00 0.00 0.00 69 1017.7
20220627112202 12 120 0.0 1.6 0.00 0.00 0.00 70 1017.7
20220627111701 12 90 0.0 1.6 0.00 0.00 0.00 70 1017.7
20220627111159 13 99 0.0 3.2 0.00 0.00 0.00 69 1017.6
20220627110657 13 90 0.0 3.2 0.00 0.00 0.00 69 1017.6
20220627110156 13 103 1.6 3.2 0.00 0.00 0.00 68 1017.8
20220627105655 13 75 1.6 3.2 0.00 0.00 0.00 68 1017.7
20220627105154 -17 0.0 0.0 0.00 0.00 0.00 1017.6
20220627104653 -17 0.0 0.0 0.00 0.00 0.00 1017.6
20220627104152 -17 0.0 0.0 0.00 0.00 0.00 1017.6
20220627103650 -17 0.0 0.0 0.00 0.00 0.00 1017.6
20220627103150 -17 0.0 0.0 0.00 0.00 0.00 1017.7
20220627102650 -17 0.0 0.0 0.00 0.00 0.00 1017.7
20220627102148 -17 0.0 0.0 0.00 0.00 0.00 1017.7
20220627101647 -17 0.0 0.0 0.00 0.00 0.00 1017.7
20220627101145 -17 0.0 0.0 0.00 0.00 0.00 1017.6
20220627100644 -17 0.0 0.0 0.00 0.00 0.00 1017.6
20220627100143 -17 0.0 0.0 0.00 0.00 0.00 1017.5
20220627095643 -17 0.0 0.0 0.00 0.00 0.00 1017.7
20220627095141 -17 0.0 0.0 0.00 0.00 0.00 1017.5
20220627094641 -17 0.0 0.0 0.00 0.00 0.00 1017.5
20220627094139 -17 0.0 0.0 0.00 0.00 0.00 1017.5
20220627093638 -17 0.0 0.0 0.00 0.00 0.00 1017.6
20220627093138 -17 0.0 0.0 0.00 0.00 0.00 1017.5
20220627092637 -17 0.0 0.0 0.00 0.00 0.00 1017.5
20220627092136 -17 0.0 0.0 0.00 0.00 0.00 1017.5
20220627091635 -17 0.0 0.0 0.00 0.00 0.00 1017.6
20220627091134 -17 0.0 0.0 0.00 0.00 0.00 1017.5
20220627090633 -17 0.0 0.0 0.00 0.00 0.00 1017.5
20220627090132 -17 0.0 0.0 0.00 0.00 0.00 1017.5
20220627085632 -17 0.0 0.0 0.00 0.00 0.00 1017.6
20220627085131 -17 0.0 0.0 0.00 0.00 0.00 1017.5
20220627084630 -17 0.0 0.0 0.00 0.00 0.00 1017.5
20220627084129 -17 0.0 0.0 0.00 0.00 0.00 1017.5
20220627083628 -17 0.0 0.0 0.00 0.00 0.00 1017.4
20220627083125 -17 0.0 0.0 0.00 0.00 0.00 1017.5
20220627082625 -17 0.0 0.0 0.00 0.00 0.00 1017.4
20220627082124 -17 0.0 0.0 0.00 0.00 0.00 1017.7
20220627081623 -17 0.0 0.0 0.00 0.00 0.00 1017.4
20220627081121 -17 0.0 0.0 0.00 0.00 0.00 1017.5
20220627080620 -17 0.0 0.0 0.00 0.00 0.00 1017.4
20220627080117 -17 0.0 0.0 0.00 0.00 0.00 1017.7
20220627075616 -17 0.0 0.0 0.00 0.00 0.00 1017.4
20220627075115 -17 0.0 0.0 0.00 0.00 0.00 1017.6
20220627074613 -17 0.0 0.0 0.00 0.00 0.00 1017.4
20220627074113 -17 0.0 0.0 0.00 0.00 0.00 1017.7
20220627073612 -17 0.0 0.0 0.00 0.00 0.00 1017.5
20220627073112 -17 0.0 0.0 0.00 0.00 0.00 1017.4
20220627072611 -17 0.0 0.0 0.00 0.00 0.00 1017.6
20220627072109 -17 0.0 0.0 0.00 0.00 0.00 1017.4
20220627071608 -17 0.0 0.0 0.00 0.00 0.00 1017.5
20220627071108 -17 0.0 0.0 0.00 0.00 0.00 1017.6
20220627070607 -17 0.0 0.0 0.00 0.00 0.00 1017.5
20220627070106 -17 0.0 0.0 0.00 0.00 0.00 1017.6
20220627065605 -17 0.0 0.0 0.00 0.03 0.03 1017.6
20220627065105 -17 0.0 0.0 0.00 0.03 0.03 1017.6
20220627064603 -17 0.0 0.0 0.00 0.03 0.03 1017.6
20220627064103 -17 0.0 0.0 0.00 0.03 0.03 1017.6
20220627063602 22 90 1.6 3.2 0.00 0.03 0.03 38 1017.6
20220627063101 22 90 1.6 3.2 0.00 0.03 0.03 38 1017.8
20220627062600 22 90 1.6 3.2 0.00 0.03 0.03 38 1017.7
20220627062100 22 90 1.6 3.2 0.00 0.03 0.03 38 1017.7
20220627061558 22 90 1.6 3.2 0.00 0.03 0.03 38 1017.7
20220627061058 22 90 1.6 3.2 0.00 0.03 0.03 38 1017.7
20220627060556 22 90 1.6 3.2 0.00 0.03 0.03 38 1017.7
20220627060055 22 90 1.6 3.2 0.00 0.03 0.03 38 1017.7
20220627055554 22 90 1.6 3.2 0.00 0.03 0.03 38 1017.8
20220627055053 22 90 1.6 3.2 0.00 0.03 0.03 38 1017.8
20220627054551 22 90 1.6 3.2 0.00 0.03 0.03 38 1017.7
20220627054051 22 90 1.6 3.2 0.00 0.03 0.03 38 1017.7
20220627053550 22 90 0.0 3.2 0.00 0.03 0.03 38 1017.6
20220627053049 21 139 3.2 3.2 0.00 0.03 0.03 41 1017.7
20220627052547 21 106 0.0 1.6 0.00 0.03 0.03 42 1017.8
20220627052048 23 83 0.0 3.2 0.00 0.03 0.03 37 1017.7
20220627051548 22 61 4.8 4.8 0.00 0.03 0.03 37 1017.8
20220627051047 22 160 0.0 0.0 0.00 0.03 0.03 39 1017.4
20220627050547 22 160 0.0 0.0 0.00 0.03 0.03 39 1017.7
20220627050046 22 200 0.0 1.6 0.00 0.03 0.03 37 1017.5
20220627045545 23 213 0.0 0.0 0.00 0.03 0.03 37 1017.6
20220627045044 23 203 1.6 3.2 0.00 0.03 0.03 36 1017.5
20220627044542 23 251 0.0 0.0 0.00 0.03 0.03 37 1017.6
20220627044041 23 261 0.0 1.6 0.00 0.03 0.03 37 1017.1
20220627043541 23 254 0.0 0.0 0.00 0.03 0.03 35 1017.4
20220627043041 23 237 3.2 4.8 0.00 0.03 0.03 35 1017.3
20220627042542 25 324 0.0 3.2 0.00 0.03 0.03 34 1017.2
20220627042041 25 262 1.6 3.2 0.00 0.03 0.03 34 1017.0
20220627041540 25 286 0.0 3.2 0.00 0.03 0.03 35 1017.1
20220627041039 26 234 0.0 3.2 0.00 0.03 0.03 33 1017.0
20220627040537 26 306 0.0 3.2 0.00 0.03 0.03 32 1016.9
20220627040037 26 270 1.6 3.2 0.00 0.03 0.03 31 1016.9
20220627035536 26 195 1.6 3.2 0.00 0.03 0.03 32 1016.8
20220627035035 27 246 0.0 1.6 0.00 0.03 0.03 31 1016.8
20220627034534 27 249 1.6 4.8 0.00 0.03 0.03 29 1016.7
20220627034033 27 249 0.0 1.6 0.00 0.03 0.03 28 1016.7
20220627033532 27 225 0.0 3.2 0.00 0.03 0.03 28 1016.9
20220627033031 28 196 0.0 4.8 0.00 0.03 0.03 27 1016.7
20220627032531 28 345 0.0 3.2 0.00 0.03 0.03 26 1016.6
20220627032029 29 261 0.0 4.8 0.00 0.03 0.03 25 1016.7
20220627031529 29 225 0.0 3.2 0.00 0.03 0.03 26 1016.6
20220627031029 30 225 3.2 3.2 0.00 0.03 0.03 26 1016.7
20220627030528 30 240 0.0 3.2 0.00 0.03 0.03 25 1016.6
20220627030026 31 246 0.0 3.2 0.00 0.03 0.03 25 1016.7
20220627025525 31 240 1.6 3.2 0.00 0.03 0.03 25 1016.5
20220627025024 31 225 0.0 3.2 0.00 0.03 0.03 25 1016.8
20220627024523 31 229 0.0 3.2 0.00 0.03 0.03 25 1016.7
20220627024023 32 215 0.0 4.8 0.00 0.03 0.03 24 1016.8
20220627023523 32 215 1.6 3.2 0.00 0.03 0.03 25 1016.7
20220627023022 32 240 0.0 3.2 0.00 0.03 0.03 24 1016.7
20220627022522 32 206 1.6 3.2 0.00 0.03 0.03 24 1016.6
20220627022021 33 212 3.2 3.2 0.00 0.03 0.03 23 1016.6
20220627021521 33 180 1.6 4.8 0.00 0.03 0.03 23 1016.7
20220627021020 33 200 0.0 3.2 0.00 0.03 0.03 23 1016.4
20220627020520 33 216 3.2 3.2 0.00 0.03 0.03 21 1016.6
20220627020019 34 203 0.0 4.8 0.00 0.03 0.03 22 1016.6
20220627015517 35 294 0.0 4.8 0.00 0.03 0.03 17 1016.7
20220627015016 35 286 0.0 3.2 0.00 0.03 0.03 17 1016.5
20220627014515 35 209 0.0 3.2 0.00 0.03 0.03 21 1016.6
20220627014015 35 131 0.0 3.2 0.00 0.03 0.03 18 1016.5
20220627013513 35 195 0.0 6.4 0.00 0.03 0.03 18 1016.5
20220627013013 35 194 0.0 4.8 0.00 0.03 0.03 18 1016.5
20220627012511 36 291 0.0 3.2 0.00 0.03 0.03 17 1016.6
20220627012011 37 209 0.0 3.2 0.00 0.03 0.03 15 1016.7
20220627011509 37 275 3.2 4.8 0.00 0.03 0.03 15 1016.6
20220627011009 37 275 3.2 4.8 0.00 0.03 0.03 15 1016.6
20220627010507 37 264 3.2 6.4 0.00 0.03 0.03 14 1016.7
20220627010006 37 213 3.2 4.8 0.00 0.03 0.03 13 1016.6
20220627005505 38 297 0.0 4.8 0.00 0.03 0.03 13 1016.7
20220627005005 38 294 0.0 4.8 0.00 0.03 0.03 14 1016.6
20220627004504 38 270 0.0 4.8 0.00 0.03 0.03 15 1016.4
20220627004003 38 213 0.0 4.8 0.00 0.03 0.03 14 1016.6
20220627003501 38 220 3.2 6.4 0.00 0.03 0.03 13 1016.6
20220627003001 38 270 3.2 3.2 0.00 0.03 0.03 16 1016.4
20220627002500 37 263 6.4 9.7 0.00 0.03 0.03 14 1016.6
20220627002000 37 275 0.0 9.7 0.00 0.03 0.03 16 1016.6
20220627001459 37 215 6.4 11.3 0.00 0.03 0.03 15 1016.5
20220627000959 38 341 8.0 8.0 0.00 0.03 0.03 15 1016.5
20220627000458 38 270 6.4 8.0 0.00 0.03 0.03 14 1016.6
20220626235957 38 297 0.0 8.0 0.00 0.03 0.03 16 1016.6
20220626235456 37 280 3.2 11.3 0.00 0.03 0.03 14 1016.7
20220626234956 38 225 3.2 8.0 0.00 0.03 0.03 15 1016.7
20220626234454 38 283 4.8 9.7 0.00 0.03 0.03 16 1016.4
20220626233952 38 328 6.4 8.0 0.00 0.03 0.03 16 1016.7
20220626233450 37 282 4.8 9.7 0.00 0.03 0.03 17 1016.8
20220626232950 37 279 4.8 11.3 0.00 0.03 0.03 16 1016.6
20220626232449 37 318 4.8 9.7 0.00 0.03 0.03 16 1016.8
20220626231948 37 265 3.2 6.4 0.00 0.03 0.03 20 1016.6
20220626231446 37 285 4.8 9.7 0.00 0.03 0.03 16 1016.8
20220626230946 38 254 11.3 11.3 0.00 0.03 0.03 15 1016.7
20220626230444 37 301 4.8 8.0 0.00 0.03 0.03 17 1016.7
20220626225944 37 270 3.2 11.3 0.00 0.03 0.03 16 1016.9
20220626225443 37 278 6.4 11.3 0.00 0.03 0.03 17 1017.0
20220626224942 38 270 3.2 9.7 0.00 0.03 0.03 17 1016.8
20220626224441 37 287 3.2 9.7 0.00 0.03 0.03 17 1016.9
20220626223942 37 228 3.2 4.8 0.00 0.03 0.03 16 1017.0
20220626223440 38 206 0.0 6.4 0.00 0.03 0.03 18 1016.9
20220626222938 37 270 3.2 8.0 0.00 0.03 0.03 19 1016.9
20220626222436 37 305 6.4 14.5 0.00 0.03 0.03 17 1016.9
20220626221935 37 303 3.2 6.4 0.00 0.03 0.03 17 1017.1
20220626221435 38 270 3.2 16.1 0.00 0.03 0.03 18 1017.1
20220626220935 38 266 4.8 12.9 0.00 0.03 0.03 17 1017.1
20220626220434 38 241 6.4 11.3 0.00 0.03 0.03 17 1017.1
20220626215933 38 286 1.6 4.8 0.00 0.03 0.03 16 1017.1
20220626215431 37 251 6.4 8.0 0.00 0.03 0.03 16 1017.2
20220626214931 37 257 3.2 11.3 0.00 0.03 0.03 17 1017.0
20220626214430 37 98 1.6 8.0 0.00 0.03 0.03 17 1017.2
20220626213929 38 234 4.8 8.0 0.00 0.03 0.03 17 1017.1
20220626213427 37 334 4.8 11.3 0.00 0.03 0.03 16 1017.3